Time,TemperatureF,DewpointF,PressureIn,WindDirection,WindDirectionDegrees,WindSpeedMPH,WindSpeedGustMPH,Humidity,HourlyPrecipIn,Conditions,Clouds,dailyrainin,SoftwareType,DateUTC
2013-05-05 00:02:00,54.0,40.0,30.19,SSW,196,0.0,1.0,60,0.00,,,0.00,,2013-05-05 04:02:00,
2013-05-05 00:12:00,54.0,40.0,30.19,SSW,196,0.0,1.0,60,0.00,,,0.00,,2013-05-05 04:12:00,
2013-05-05 00:23:00,54.0,41.0,30.19,SSW,196,0.0,2.0,61,0.00,,,0.00,,2013-05-05 04:23:00,
2013-05-05 00:32:00,52.0,40.0,30.19,SSW,196,0.0,0.0,63,0.00,,,0.00,,2013-05-05 04:32:00,
2013-05-05 00:43:00,52.0,40.0,30.19,SSW,196,0.0,0.0,63,0.00,,,0.00,,2013-05-05 04:43:00,
2013-05-05 00:53:00,51.0,40.0,30.20,SSW,196,0.0,0.0,66,0.00,,,0.00,,2013-05-05 04:53:00,
2013-05-05 01:02:00,50.0,40.0,30.20,SSW,196,0.0,0.0,68,0.00,,,0.00,,2013-05-05 05:02:00,
2013-05-05 01:12:00,50.0,40.0,30.20,SSW,196,0.0,0.0,68,0.00,,,0.00,,2013-05-05 05:12:00,
2013-05-05 01:22:00,50.0,39.0,30.20,SSW,196,0.0,0.0,67,0.00,,,0.00,,2013-05-05 05:22:00,
2013-05-05 01:32:00,51.0,40.0,30.20,SSW,196,0.0,2.0,65,0.00,,,0.00,,2013-05-05 05:32:00,
2013-05-05 01:42:00,51.0,40.0,30.20,SSW,196,0.0,2.0,65,0.00,,,0.00,,2013-05-05 05:42:00,
2013-05-05 01:52:00,51.0,39.0,30.20,SSW,196,0.0,0.0,64,0.00,,,0.00,,2013-05-05 05:52:00,
2013-05-05 02:01:00,50.0,39.0,30.20,SSW,196,0.0,0.0,65,0.00,,,0.00,,2013-05-05 06:01:00,
2013-05-05 02:12:00,50.0,39.0,30.20,SSW,196,0.0,0.0,65,0.00,,,0.00,,2013-05-05 06:12:00,
2013-05-05 02:21:00,50.0,39.0,30.19,SSW,196,0.0,1.0,65,0.00,,,0.00,,2013-05-05 06:21:00,
2013-05-05 02:32:00,50.0,38.0,30.19,SSW,192,1.0,3.0,64,0.00,,,0.00,,2013-05-05 06:32:00,
2013-05-05 02:42:00,50.0,38.0,30.19,SSW,192,1.0,3.0,64,0.00,,,0.00,,2013-05-05 06:42:00,
2013-05-05 02:52:00,50.0,38.0,30.19,South,173,1.0,3.0,64,0.00,,,0.00,,2013-05-05 06:52:00,
2013-05-05 03:01:00,50.0,38.0,30.19,South,173,0.0,3.0,64,0.00,,,0.00,,2013-05-05 07:01:00,
2013-05-05 03:11:00,50.0,38.0,30.19,South,173,0.0,3.0,64,0.00,,,0.00,,2013-05-05 07:11:00,
2013-05-05 03:22:00,50.0,38.0,30.19,South,173,0.0,3.0,64,0.00,,,0.00,,2013-05-05 07:22:00,
2013-05-05 03:32:00,49.0,38.0,30.19,South,173,0.0,2.0,66,0.00,,,0.00,,2013-05-05 07:32:00,
2013-05-05 03:42:00,49.0,38.0,30.19,South,173,0.0,2.0,66,0.00,,,0.00,,2013-05-05 07:42:00,
2013-05-05 03:52:00,48.0,38.0,30.19,South,173,0.0,1.0,67,0.00,,,0.00,,2013-05-05 07:52:00,
2013-05-05 04:02:00,48.0,38.0,30.19,South,172,1.0,4.0,68,0.00,,,0.00,,2013-05-05 08:02:00,
2013-05-05 04:11:00,48.0,38.0,30.19,South,172,1.0,4.0,68,0.00,,,0.00,,2013-05-05 08:11:00,
2013-05-05 04:21:00,49.0,39.0,30.19,SSE,163,1.0,3.0,67,0.00,,,0.00,,2013-05-05 08:21:00,
2013-05-05 04:32:00,48.0,38.0,30.19,SSE,163,0.0,1.0,67,0.00,,,0.00,,2013-05-05 08:32:00,
2013-05-05 04:42:00,48.0,38.0,30.19,SSE,163,0.0,1.0,67,0.00,,,0.00,,2013-05-05 08:42:00,
2013-05-05 04:53:00,48.0,38.0,30.19,SSE,163,0.0,2.0,69,0.00,,,0.00,,2013-05-05 08:53:00,
2013-05-05 05:01:00,47.0,38.0,30.19,SSE,163,1.0,3.0,70,0.00,,,0.00,,2013-05-05 09:01:00,
2013-05-05 05:11:00,47.0,38.0,30.19,SSE,163,1.0,3.0,70,0.00,,,0.00,,2013-05-05 09:11:00,
2013-05-05 05:21:00,47.0,38.0,30.19,SSE,163,1.0,4.0,71,0.00,,,0.00,,2013-05-05 09:21:00,
2013-05-05 05:33:00,46.0,37.0,30.19,SSE,161,1.0,4.0,72,0.00,,,0.00,,2013-05-05 09:33:00,
2013-05-05 05:42:00,46.0,37.0,30.19,SSE,161,1.0,4.0,72,0.00,,,0.00,,2013-05-05 09:42:00,
2013-05-05 05:52:00,46.0,38.0,30.19,SSE,155,2.0,4.0,73,0.00,,,0.00,,2013-05-05 09:52:00,
2013-05-05 06:03:00,45.0,37.0,30.19,SE,144,2.0,4.0,73,0.00,,,0.00,,2013-05-05 10:03:00,
2013-05-05 06:12:00,45.0,37.0,30.19,SE,144,2.0,4.0,73,0.00,,,0.00,,2013-05-05 10:12:00,
2013-05-05 06:22:00,45.0,37.0,30.19,SE,143,1.0,4.0,74,0.00,,,0.00,,2013-05-05 10:22:00,
2013-05-05 06:32:00,45.0,37.0,30.20,SE,130,3.0,7.0,74,0.00,,,0.00,,2013-05-05 10:32:00,
2013-05-05 06:42:00,45.0,37.0,30.20,SE,130,3.0,7.0,74,0.00,,,0.00,,2013-05-05 10:42:00,
2013-05-05 06:53:00,45.0,37.0,30.21,SE,130,0.0,1.0,72,0.00,,,0.00,,2013-05-05 10:53:00,
2013-05-05 07:01:00,44.0,37.0,30.22,SSW,202,0.0,1.0,75,0.00,,,0.00,,2013-05-05 11:01:00,
2013-05-05 07:12:00,44.0,37.0,30.22,SSW,202,0.0,1.0,75,0.00,,,0.00,,2013-05-05 11:12:00,
2013-05-05 07:22:00,46.0,38.0,30.22,SSW,202,0.0,0.0,74,0.00,,,0.00,,2013-05-05 11:22:00,
2013-05-05 07:32:00,47.0,38.0,30.22,SE,127,2.0,3.0,70,0.00,,,0.00,,2013-05-05 11:32:00,
2013-05-05 07:42:00,47.0,38.0,30.22,SE,127,2.0,3.0,70,0.00,,,0.00,,2013-05-05 11:42:00,
2013-05-05 07:52:00,48.0,38.0,30.22,SE,140,2.0,6.0,68,0.00,,,0.00,,2013-05-05 11:52:00,
2013-05-05 08:02:00,49.0,39.0,30.22,East,86,2.0,5.0,67,0.00,,,0.00,,2013-05-05 12:02:00,
2013-05-05 08:11:00,49.0,39.0,30.22,East,86,2.0,5.0,67,0.00,,,0.00,,2013-05-05 12:11:00,
2013-05-05 08:22:00,49.0,39.0,30.22,East,99,6.0,9.0,67,0.00,,,0.00,,2013-05-05 12:22:00,
2013-05-05 08:32:00,49.0,39.0,30.21,NE,48,5.0,10.0,69,0.00,,,0.00,,2013-05-05 12:32:00,
2013-05-05 08:42:00,49.0,39.0,30.21,NE,48,5.0,10.0,69,0.00,,,0.00,,2013-05-05 12:42:00,
2013-05-05 08:52:00,50.0,39.0,30.22,East,88,5.0,9.0,67,0.00,,,0.00,,2013-05-05 12:52:00,
2013-05-05 09:01:00,51.0,40.0,30.22,SE,124,3.0,7.0,66,0.00,,,0.00,,2013-05-05 13:01:00,
2013-05-05 09:11:00,51.0,40.0,30.22,SE,124,3.0,7.0,66,0.00,,,0.00,,2013-05-05 13:11:00,
2013-05-05 09:21:00,51.0,40.0,30.23,ESE,109,3.0,7.0,66,0.00,,,0.00,,2013-05-05 13:21:00,
2013-05-05 09:32:00,51.0,40.0,30.23,ESE,117,1.0,8.0,66,0.00,,,0.00,,2013-05-05 13:32:00,
2013-05-05 09:42:00,51.0,40.0,30.23,ESE,117,1.0,8.0,66,0.00,,,0.00,,2013-05-05 13:42:00,
2013-05-05 09:52:00,51.0,40.0,30.23,SE,129,2.0,8.0,65,0.00,,,0.00,,2013-05-05 13:52:00,
2013-05-05 10:02:00,51.0,40.0,30.22,SE,131,2.0,8.0,65,0.00,,,0.00,,2013-05-05 14:02:00,
2013-05-05 10:11:00,52.0,40.0,30.22,East,96,1.0,8.0,64,0.00,,,0.00,,2013-05-05 14:11:00,
2013-05-05 10:21:00,52.0,40.0,30.22,East,96,1.0,8.0,64,0.00,,,0.00,,2013-05-05 14:21:00,
2013-05-05 10:32:00,53.0,39.0,30.22,East,96,4.0,10.0,59,0.00,,,0.00,,2013-05-05 14:32:00,
2013-05-05 10:42:00,53.0,39.0,30.22,East,96,4.0,10.0,59,0.00,,,0.00,,2013-05-05 14:42:00,
2013-05-05 10:52:00,52.0,39.0,30.22,ENE,61,4.0,7.0,60,0.00,,,0.00,,2013-05-05 14:52:00,
2013-05-05 11:02:00,53.0,39.0,30.22,East,84,6.0,11.0,58,0.00,,,0.00,,2013-05-05 15:02:00,
2013-05-05 11:11:00,53.0,39.0,30.22,East,84,6.0,11.0,58,0.00,,,0.00,,2013-05-05 15:11:00,
2013-05-05 11:21:00,54.0,40.0,30.22,SE,141,2.0,7.0,58,0.00,,,0.00,,2013-05-05 15:21:00,
2013-05-05 11:33:00,54.0,40.0,30.22,SSE,161,4.0,8.0,59,0.00,,,0.00,,2013-05-05 15:33:00,
2013-05-05 11:43:00,54.0,40.0,30.22,SSE,161,4.0,8.0,59,0.00,,,0.00,,2013-05-05 15:43:00,
2013-05-05 11:53:00,54.0,40.0,30.21,SSE,163,4.0,8.0,58,0.00,,,0.00,,2013-05-05 15:53:00,
2013-05-05 12:03:00,55.0,40.0,30.21,SE,139,6.0,9.0,56,0.00,,,0.00,,2013-05-05 16:03:00,
2013-05-05 12:12:00,55.0,40.0,30.21,SE,139,6.0,9.0,56,0.00,,,0.00,,2013-05-05 16:12:00,
2013-05-05 12:23:00,56.0,41.0,30.20,East,82,1.0,7.0,56,0.00,,,0.00,,2013-05-05 16:23:00,
2013-05-05 12:32:00,57.0,41.0,30.19,East,96,1.0,7.0,55,0.00,,,0.00,,2013-05-05 16:32:00,
2013-05-05 12:42:00,57.0,41.0,30.19,East,96,1.0,7.0,55,0.00,,,0.00,,2013-05-05 16:42:00,
2013-05-05 12:53:00,58.0,42.0,30.19,SE,139,2.0,9.0,55,0.00,,,0.00,,2013-05-05 16:53:00,
2013-05-05 13:02:00,58.0,41.0,30.18,NE,49,3.0,6.0,54,0.00,,,0.00,,2013-05-05 17:02:00,
2013-05-05 13:12:00,58.0,41.0,30.18,NE,49,3.0,6.0,54,0.00,,,0.00,,2013-05-05 17:12:00,
2013-05-05 13:23:00,60.0,42.0,30.18,East,80,1.0,5.0,51,0.00,,,0.00,,2013-05-05 17:23:00,
2013-05-05 13:32:00,61.0,42.0,30.17,East,81,1.0,9.0,49,0.00,,,0.00,,2013-05-05 17:32:00,
2013-05-05 13:42:00,61.0,42.0,30.17,East,81,1.0,9.0,49,0.00,,,0.00,,2013-05-05 17:42:00,
2013-05-05 13:52:00,61.0,42.0,30.17,SE,140,3.0,7.0,49,0.00,,,0.00,,2013-05-05 17:52:00,
2013-05-05 14:01:00,62.0,43.0,30.17,SE,132,2.0,7.0,49,0.00,,,0.00,,2013-05-05 18:01:00,
2013-05-05 14:12:00,62.0,43.0,30.17,SE,132,2.0,7.0,49,0.00,,,0.00,,2013-05-05 18:12:00,
2013-05-05 14:21:00,63.0,42.0,30.16,NE,39,2.0,8.0,46,0.00,,,0.00,,2013-05-05 18:21:00,
2013-05-05 14:32:00,63.0,40.0,30.16,SSE,163,2.0,9.0,43,0.00,,,0.00,,2013-05-05 18:32:00,
2013-05-05 14:42:00,63.0,40.0,30.16,SSE,163,2.0,9.0,43,0.00,,,0.00,,2013-05-05 18:42:00,
2013-05-05 14:52:00,64.0,40.0,30.15,SE,145,3.0,7.0,42,0.00,,,0.00,,2013-05-05 18:52:00,
2013-05-05 15:01:00,65.0,41.0,30.15,SE,138,4.0,8.0,41,0.00,,,0.00,,2013-05-05 19:01:00,
2013-05-05 15:11:00,65.0,41.0,30.15,SE,138,4.0,8.0,41,0.00,,,0.00,,2013-05-05 19:11:00,
2013-05-05 15:21:00,66.0,41.0,30.15,East,98,3.0,8.0,40,0.00,,,0.00,,2013-05-05 19:21:00,
2013-05-05 15:32:00,65.0,43.0,30.14,SSE,150,2.0,7.0,45,0.00,,,0.00,,2013-05-05 19:32:00,
2013-05-05 15:42:00,65.0,43.0,30.14,SSE,150,2.0,7.0,45,0.00,,,0.00,,2013-05-05 19:42:00,
2013-05-05 15:52:00,66.0,40.0,30.14,SSE,149,1.0,5.0,39,0.00,,,0.00,,2013-05-05 19:52:00,
2013-05-05 16:01:00,66.0,42.0,30.13,East,92,4.0,9.0,42,0.00,,,0.00,,2013-05-05 20:01:00,
2013-05-05 16:11:00,66.0,42.0,30.13,East,92,4.0,9.0,42,0.00,,,0.00,,2013-05-05 20:11:00,
2013-05-05 16:21:00,66.0,41.0,30.12,SSW,192,1.0,8.0,40,0.00,,,0.00,,2013-05-05 20:21:00,
2013-05-05 16:32:00,67.0,41.0,30.12,SE,126,5.0,10.0,38,0.00,,,0.00,,2013-05-05 20:32:00,
2013-05-05 16:42:00,67.0,41.0,30.12,SE,126,5.0,10.0,38,0.00,,,0.00,,2013-05-05 20:42:00,
2013-05-05 16:52:00,67.0,40.0,30.12,SE,137,2.0,7.0,37,0.00,,,0.00,,2013-05-05 20:52:00,
2013-05-05 17:02:00,67.0,42.0,30.12,ESE,121,3.0,6.0,40,0.00,,,0.00,,2013-05-05 21:02:00,
2013-05-05 17:11:00,67.0,42.0,30.12,ESE,121,3.0,6.0,40,0.00,,,0.00,,2013-05-05 21:11:00,
2013-05-05 17:21:00,67.0,40.0,30.11,SE,142,4.0,9.0,37,0.00,,,0.00,,2013-05-05 21:21:00,
2013-05-05 17:33:00,67.0,39.0,30.11,SE,137,4.0,9.0,36,0.00,,,0.00,,2013-05-05 21:33:00,
2013-05-05 17:42:00,67.0,39.0,30.11,SE,137,4.0,9.0,36,0.00,,,0.00,,2013-05-05 21:42:00,
2013-05-05 17:53:00,67.0,41.0,30.11,SE,140,3.0,9.0,38,0.00,,,0.00,,2013-05-05 21:53:00,
2013-05-05 18:02:00,67.0,40.0,30.11,SE,140,3.0,8.0,37,0.00,,,0.00,,2013-05-05 22:02:00,
2013-05-05 18:12:00,67.0,40.0,30.11,SE,140,3.0,8.0,37,0.00,,,0.00,,2013-05-05 22:12:00,
2013-05-05 18:22:00,67.0,41.0,30.11,SE,128,2.0,11.0,38,0.00,,,0.00,,2013-05-05 22:22:00,
2013-05-05 18:33:00,67.0,41.0,30.11,East,101,3.0,9.0,39,0.00,,,0.00,,2013-05-05 22:33:00,
2013-05-05 18:42:00,67.0,41.0,30.11,East,101,3.0,9.0,39,0.00,,,0.00,,2013-05-05 22:42:00,
2013-05-05 18:52:00,66.0,40.0,30.11,SE,127,1.0,4.0,38,0.00,,,0.00,,2013-05-05 22:52:00,
2013-05-05 19:02:00,65.0,37.0,30.11,ESE,105,4.0,9.0,36,0.00,,,0.00,,2013-05-05 23:02:00,
2013-05-05 19:11:00,65.0,37.0,30.11,ESE,105,4.0,9.0,36,0.00,,,0.00,,2013-05-05 23:11:00,
2013-05-05 19:21:00,64.0,37.0,30.11,ESE,123,3.0,7.0,37,0.00,,,0.00,,2013-05-05 23:21:00,
2013-05-05 19:32:00,63.0,36.0,30.12,SE,129,3.0,8.0,37,0.00,,,0.00,,2013-05-05 23:32:00,
2013-05-05 19:42:00,63.0,36.0,30.12,SE,129,3.0,8.0,37,0.00,,,0.00,,2013-05-05 23:42:00,
2013-05-05 19:52:00,63.0,39.0,30.13,SE,146,3.0,5.0,41,0.00,,,0.00,,2013-05-05 23:52:00,
2013-05-05 20:01:00,61.0,40.0,30.13,SSE,153,2.0,5.0,45,0.00,,,0.00,,2013-05-06 00:01:00,
2013-05-05 20:11:00,61.0,40.0,30.13,SSE,153,2.0,5.0,45,0.00,,,0.00,,2013-05-06 00:11:00,
2013-05-05 20:21:00,60.0,40.0,30.14,SSE,162,2.0,6.0,47,0.00,,,0.00,,2013-05-06 00:21:00,
2013-05-05 20:32:00,59.0,39.0,30.14,SSE,154,1.0,5.0,48,0.00,,,0.00,,2013-05-06 00:32:00,
2013-05-05 20:41:00,59.0,39.0,30.14,SSE,154,1.0,5.0,48,0.00,,,0.00,,2013-05-06 00:41:00,
2013-05-05 20:52:00,58.0,39.0,30.14,SSE,165,1.0,3.0,50,0.00,,,0.00,,2013-05-06 00:52:00,
2013-05-05 21:01:00,57.0,40.0,30.14,SSE,161,2.0,6.0,52,0.00,,,0.00,,2013-05-06 01:01:00,
2013-05-05 21:11:00,57.0,40.0,30.14,SSE,161,2.0,6.0,52,0.00,,,0.00,,2013-05-06 01:11:00,
2013-05-05 21:21:00,56.0,39.0,30.14,SSE,161,0.0,3.0,53,0.00,,,0.00,,2013-05-06 01:21:00,
2013-05-05 21:31:00,55.0,39.0,30.14,SSE,161,0.0,2.0,55,0.00,,,0.00,,2013-05-06 01:31:00,
2013-05-05 21:42:00,55.0,39.0,30.14,SSE,161,0.0,2.0,55,0.00,,,0.00,,2013-05-06 01:42:00,
2013-05-05 21:52:00,54.0,39.0,30.15,SSE,161,0.0,2.0,56,0.00,,,0.00,,2013-05-06 01:52:00,
2013-05-05 22:02:00,53.0,39.0,30.15,SSE,161,0.0,2.0,58,0.00,,,0.00,,2013-05-06 02:02:00,
2013-05-05 22:12:00,53.0,39.0,30.15,SSE,161,0.0,2.0,58,0.00,,,0.00,,2013-05-06 02:12:00,
2013-05-05 22:21:00,52.0,39.0,30.15,SSE,161,0.0,0.0,60,0.00,,,0.00,,2013-05-06 02:21:00,
2013-05-05 22:32:00,51.0,38.0,30.15,SSE,161,0.0,0.0,62,0.00,,,0.00,,2013-05-06 02:32:00,
2013-05-05 22:42:00,51.0,38.0,30.15,SSE,161,0.0,0.0,62,0.00,,,0.00,,2013-05-06 02:42:00,
2013-05-05 22:52:00,51.0,39.0,30.15,SSE,161,0.0,1.0,64,0.00,,,0.00,,2013-05-06 02:52:00,
2013-05-05 23:02:00,51.0,39.0,30.15,SSE,161,0.0,1.0,64,0.00,,,0.00,,2013-05-06 03:02:00,
2013-05-05 23:11:00,51.0,39.0,30.15,SSE,161,0.0,1.0,64,0.00,,,0.00,,2013-05-06 03:11:00,
2013-05-05 23:22:00,50.0,39.0,30.16,SSE,161,0.0,1.0,66,0.00,,,0.00,,2013-05-06 03:22:00,
2013-05-05 23:33:00,48.0,37.0,30.16,SSE,161,0.0,1.0,66,0.00,,,0.00,,2013-05-06 03:33:00,
2013-05-05 23:42:00,48.0,37.0,30.16,SSE,161,0.0,1.0,66,0.00,,,0.00,,2013-05-06 03:42:00,
2013-05-05 23:52:00,48.0,39.0,30.16,SSE,161,0.0,0.0,70,0.00,,,0.00,,2013-05-06 03:52:00,